Location: Gleizolles
(44.4833°N, 6.7667°E)
Time: 15:15:19
(UTC+00:00)

Altair - Pass Details

Date: 04 July 2024
Orbit: 1502 x 1681 km, 47.2° (Epoch: 13 July)

Event Time Altitude Azimuth Distance (km) Brightness Sun altitude
Rises 04:35:31 0° 294° (WNW) 4,676 9.7 5.5°
Reaches altitude 10° 04:38:41 10° 288° (WNW) 3,709 9.1 6.0°
Maximum altitude 04:47:21 44° 220° (SW) 2,056 7.9 7.4°
Drops below altitude 10° 04:56:20 10° 153° (SSE) 3,826 9.7 8.9°
Sets 04:59:40 0° 147° (SSE) 4,834 10.3 9.4°
